Regional Weather Roundup
Issued by NWS Jackson, KY

Home | Current Version | Previous Version | Graphics & Text | Print | Product List | Glossary On
Versions: 1 2 3 4 5 6 7 8 9 10 11 12 13 14 15 16 17 18 19 20 21 22 23 24 25 26 27 28 29 30 31 32 33 34 35 36 37 38 39 40 41 42 43 44 45 46 47 48 49 50
000
ASUS43 KJKL 060010
RWRJKL

EAST KENTUCKY HOURLY WEATHER ROUNDUP
NATIONAL WEATHER SERVICE JACKSON KY
800 PM EDT SUN JUL 05 2015

NOTE: "FAIR" INDICATES FEW OR NO CLOUDS BELOW 12,000 FEET WITH
NO SIGNIFICANT WEATHER AND/OR OBSTRUCTIONS TO VISIBILITY.

* THESE REPORTS ARE NOT UNDER NWS QUALITY CONTROL AND MAY NOT
  REPORT WEATHER SUCH AS PRECIPITATION AND FOG.

KYZ079-080-083-085-087-088-110-112-115-119-120-060100
...EASTERN KENTUCKY...

CITY           SKY/WX    TMP DP  RH WIND       PRES   REMARKS
JACKSON        CLOUDY    70  66  87 NW5       30.07S
6HR MIN TEMP:  69; 6HR MAX TEMP:  73; 6HR PCP:  0.06;

LONDON         MOCLDY    74  64  71 NW5       30.08R
6HR MIN TEMP:  68; 6HR MAX TEMP:  76; 6HR PCP:  0.12;

SOMERSET*      MOSUNNY   72  68  88 CALM      30.08S
MONTICELLO*    PTSUNNY   72  72 100 CALM      30.10S
6HR MIN TEMP:  72; 6HR MAX TEMP:  79;

MIDDLESBORO*   CLOUDY    70  67  89 W5        30.08R
6HR MIN TEMP:  70; 6HR MAX TEMP:  79; 6HR PCP:  0.19;

HARLAN APT*      N/A     72  70  94 W5        30.06R
HAZARD APT*    CLOUDY    72  70  94 CALM      30.07S
BLACK MTN*       N/A     63  63 100 W5          N/A
PIKEVILLE APT* CLOUDY    72  70  94 CALM      30.06F
BIG SANDY*     HVY RAIN  72  70  93 NW8       30.05S
6HR MIN TEMP:  71; 6HR MAX TEMP:  81;

MOREHEAD APT*  CLOUDY    72  68  88 NW3       30.09R FOG
$$

KYZ035-036-041-042-044-050-067-078-099-060100
...CENTRAL KENTUCKY...

CITY           SKY/WX    TMP DP  RH WIND       PRES   REMARKS
MT STERLING*   RAIN      68  68 100 NE5       30.09R
FLEMING/MASON* CLOUDY    72  66  83 N3        30.08R
DANVILLE*      MOSUNNY   72  66  83 CALM      30.08R
RICHMOND*      MOSUNNY   73  66  78 N5        30.07R
LEXINGTON      MOSUNNY   75  66  73 NE7       30.07R
6HR MIN TEMP:  74; 6HR MAX TEMP:  79; 6HR PCP: TRACE;

FRANKFORT      MOSUNNY   76  64  66 N5        30.06R
6HR MIN TEMP:  76; 6HR MAX TEMP:  80;

$$

KYZ091>093-OHZ055-061-077-WVZ005-015-034-035-042-060100
...SOUTHERN OHIO/WEST VIRGINIA...

CITY           SKY/WX    TMP DP  RH WIND       PRES   REMARKS
COVINGTON      PTSUNNY   76  61  59 N7        30.06F
COLUMBUS       CLOUDY    76  64  66 NE6       30.07R
DAYTON         CLOUDY    75  62  64 E5        30.09S
WILMINGTON     CLOUDY    73  64  73 NE3       30.08R
HUNTINGTON     TSTM      71  67  87 VRB3      30.04R FOG
CHARLESTON     CLOUDY    71  66  84 CALM      30.04S
PINEVILLE*     CLOUDY    67  67  99 MISG      30.13S
BECKLEY        TSTM      63  60  90 E13       30.13F FOG
BLUEFIELD      CLOUDY    66  61  84 SE5       30.16R
$$

VAZ002-007-008-TNZ017-027-036-066-071-060100
...SOUTHWEST VIRGINIA/EAST TENNESSEE...

CITY           SKY/WX    TMP DP  RH WIND       PRES   REMARKS
WISE*          CLOUDY    70  63  78 S5        30.12R
JONESVILLE*      N/A    N/A N/A N/A MISG        N/A
ABINGDON*      CLOUDY    70  70  99 SW3       30.09F
BRISTOL        MOCLDY    72  68  87 SW9       30.07S
KNOXVILLE      CLOUDY    71  67  87 S7        30.07S
OAK RIDGE      CLOUDY    74  68  81 S5        30.08S
CROSSVILLE     MOSUNNY   75  64  68 W6        30.12S
NASHVILLE      PTSUNNY   82  69  64 CALM      30.04F
$$

...KEY TO REMARKS...
VSB - VISIBILITY IN MILES
WCI - WIND CHILL INDEX
HX  - HEAT INDEX

$$


USA.gov is the U.S. government's official web portal to all federal, state and local government web resources and services.